Time,TemperatureF,DewpointF,PressureIn,WindDirection,WindDirectionDegrees,WindSpeedMPH,WindSpeedGustMPH,Humidity,HourlyPrecipIn,Conditions,Clouds,dailyrainin,SoftwareType,DateUTC
2013-05-22 00:00:00,53.0,24.0,30.12,North,360,33.0,40.0,32,-99.99,,,-99.99,,2013-05-22 08:00:00,
2013-05-22 00:51:00,53.0,24.0,30.12,North,360,33.0,40.0,32,-99.99,,,-99.99,,2013-05-22 08:51:00,
2013-05-22 01:00:00,51.0,29.0,30.11,North,350,28.0,40.0,42,-99.99,,,-99.99,,2013-05-22 09:00:00,
2013-05-22 01:53:00,51.0,29.0,30.11,North,350,28.0,40.0,42,-99.99,,,-99.99,,2013-05-22 09:53:00,
2013-05-22 02:00:00,51.0,28.0,30.11,North,350,28.0,38.0,40,-99.99,,,-99.99,,2013-05-22 10:00:00,
2013-05-22 02:52:00,51.0,28.0,30.11,North,350,28.0,38.0,40,-99.99,,,-99.99,,2013-05-22 10:52:00,
2013-05-22 03:00:00,50.0,30.0,30.10,NNW,340,29.0,37.0,45,-99.99,,,-99.99,,2013-05-22 11:00:00,
2013-05-22 03:52:00,50.0,30.0,30.10,NNW,340,29.0,37.0,45,-99.99,,,-99.99,,2013-05-22 11:52:00,
2013-05-22 04:00:00,48.0,30.0,30.09,NNW,340,30.0,37.0,49,-99.99,,,-99.99,,2013-05-22 12:00:00,
2013-05-22 04:52:00,48.0,30.0,30.09,NNW,340,30.0,37.0,49,-99.99,,,-99.99,,2013-05-22 12:52:00,
2013-05-22 05:00:00,48.0,31.0,30.09,NNW,340,28.0,39.0,51,-99.99,,,-99.99,,2013-05-22 13:00:00,
2013-05-22 05:52:00,48.0,31.0,30.09,NNW,340,28.0,39.0,51,-99.99,,,-99.99,,2013-05-22 13:52:00,
2013-05-22 06:00:00,48.0,32.0,30.09,NNW,340,24.0,36.0,53,-99.99,,,-99.99,,2013-05-22 14:00:00,
2013-05-22 06:52:00,48.0,32.0,30.09,NNW,340,24.0,36.0,53,-99.99,,,-99.99,,2013-05-22 14:52:00,
2013-05-22 07:00:00,47.0,35.0,30.09,NNW,330,13.0,29.0,63,-99.99,,,-99.99,,2013-05-22 15:00:00,
2013-05-22 07:53:00,47.0,35.0,30.09,NNW,330,13.0,29.0,63,-99.99,,,-99.99,,2013-05-22 15:53:00,
2013-05-22 08:00:00,47.0,34.0,30.08,NW,310,21.0,30.0,60,-99.99,,,-99.99,,2013-05-22 16:00:00,
2013-05-22 08:52:00,47.0,34.0,30.08,NW,310,21.0,30.0,60,-99.99,,,-99.99,,2013-05-22 16:52:00,
2013-05-22 11:00:00,50.0,36.0,30.08,North,350,17.0,30.0,58,-99.99,,,-99.99,,2013-05-22 19:00:00,
2013-05-22 11:52:00,50.0,36.0,30.08,North,350,17.0,30.0,58,-99.99,,,-99.99,,2013-05-22 19:52:00,
2013-05-22 12:00:00,50.0,35.0,30.08,SW,230,18.0,28.0,56,-99.99,,,-99.99,,2013-05-22 20:00:00,
2013-05-22 12:51:00,50.0,35.0,30.08,SW,230,18.0,28.0,56,-99.99,,,-99.99,,2013-05-22 20:51:00,
2013-05-22 13:00:00,49.0,36.0,30.10,NNW,340,18.0,31.0,60,-99.99,,,-99.99,,2013-05-22 21:00:00,
2013-05-22 13:52:00,49.0,36.0,30.10,NNW,340,18.0,31.0,60,-99.99,,,-99.99,,2013-05-22 21:52:00,
2013-05-22 14:00:00,50.0,35.0,30.09,North,360,13.0,23.0,56,-99.99,,,-99.99,,2013-05-22 22:00:00,
2013-05-22 14:42:00,50.0,35.0,30.09,North,360,13.0,23.0,56,-99.99,,,-99.99,,2013-05-22 22:42:00,
2013-05-22 14:52:00,50.0,35.0,30.09,North,360,13.0,23.0,56,-99.99,,,-99.99,,2013-05-22 22:52:00,
2013-05-22 15:00:00,51.0,38.0,30.08,North,360,11.0,18.0,60,-99.99,,,-99.99,,2013-05-22 23:00:00,
2013-05-22 15:52:00,51.0,38.0,30.08,North,360,11.0,18.0,60,-99.99,,,-99.99,,2013-05-22 23:52:00,
2013-05-22 16:00:00,53.0,37.0,30.08,North,360,8.0,14.0,54,-99.99,,,-99.99,,2013-05-23 00:00:00,
2013-05-22 16:41:00,53.0,37.0,30.08,North,360,8.0,14.0,54,-99.99,,,-99.99,,2013-05-23 00:41:00,
2013-05-22 16:51:00,53.0,37.0,30.08,North,360,8.0,14.0,54,-99.99,,,-99.99,,2013-05-23 00:51:00,
2013-05-22 17:00:00,54.0,35.0,30.08,NE,40,3.0,9.0,48,-99.99,,,-99.99,,2013-05-23 01:00:00,
2013-05-22 17:41:00,54.0,35.0,30.08,NE,40,3.0,9.0,48,-99.99,,,-99.99,,2013-05-23 01:41:00,
2013-05-22 17:52:00,54.0,35.0,30.08,NE,40,3.0,9.0,48,-99.99,,,-99.99,,2013-05-23 01:52:00,
2013-05-22 19:00:00,56.0,35.0,30.08,SE,140,1.0,-999.0,45,-99.99,,,-99.99,,2013-05-23 03:00:00,
2013-05-22 19:43:00,56.0,35.0,30.08,SE,140,1.0,-999.0,45,-99.99,,,-99.99,,2013-05-23 03:43:00,
2013-05-22 19:53:00,56.0,35.0,30.08,SE,140,1.0,-999.0,45,-99.99,,,-99.99,,2013-05-23 03:53:00,
2013-05-22 20:00:00,53.0,35.0,30.08,SSW,210,3.0,8.0,50,-99.99,,,-99.99,,2013-05-23 04:00:00,
2013-05-22 20:42:00,53.0,35.0,30.08,SSW,210,3.0,8.0,50,-99.99,,,-99.99,,2013-05-23 04:42:00,
2013-05-22 20:52:00,53.0,35.0,30.08,SSW,210,3.0,8.0,50,-99.99,,,-99.99,,2013-05-23 04:52:00,
2013-05-22 21:00:00,52.0,36.0,30.09,East,90,5.0,8.0,54,-99.99,,,-99.99,,2013-05-23 05:00:00,
2013-05-22 21:42:00,52.0,36.0,30.09,East,90,5.0,8.0,54,-99.99,,,-99.99,,2013-05-23 05:42:00,
2013-05-22 21:52:00,52.0,36.0,30.09,East,90,5.0,8.0,54,-99.99,,,-99.99,,2013-05-23 05:52:00,
2013-05-22 22:00:00,48.0,33.0,30.10,East,80,1.0,5.0,56,-99.99,,,-99.99,,2013-05-23 06:00:00,
2013-05-22 22:41:00,48.0,33.0,30.10,East,80,1.0,5.0,56,-99.99,,,-99.99,,2013-05-23 06:41:00,
2013-05-22 22:51:00,48.0,33.0,30.10,East,80,1.0,5.0,56,-99.99,,,-99.99,,2013-05-23 06:51:00,
2013-05-22 23:00:00,48.0,36.0,30.10,North,10,10.0,14.0,62,-99.99,,,-99.99,,2013-05-23 07:00:00,
2013-05-22 23:41:00,48.0,36.0,30.10,North,10,10.0,14.0,62,-99.99,,,-99.99,,2013-05-23 07:41:00,
2013-05-22 23:59:00,48.0,36.0,30.10,North,10,10.0,14.0,62,-99.99,,,-99.99,,2013-05-23 07:59:00,